GW2223 Weather Reports


Display with metric or nautical units.
time (UTC)temp
F
wind
direction
speed
MPH
gust
MPH
rain 1hr
in
rain 24hr
in
rain mn
in
humidity
%
barometer
mb
20260906182627 93 141 2.0 4.0 0.00 0.00 0.00 53 1014.8
20260906182134 93 114 1.0 3.0 0.00 0.00 0.00 58 1015.0
20260906181642 92 261 2.0 3.0 0.00 0.00 0.00 56 1015.0
20260906181128 92 131 2.0 3.0 0.00 0.00 0.00 55 1015.2
20260906180623 92 146 1.0 3.0 0.00 0.00 0.00 58 1015.3
20260906180200 92 157 1.0 3.0 0.00 0.00 0.00 61 1015.4
20260906175625 91 234 1.0 3.0 0.00 0.00 0.00 59 1015.4
20260906175132 91 146 1.0 3.0 0.00 0.00 0.00 58 1015.4
20260906174622 91 148 1.0 3.0 0.00 0.00 0.00 61 1015.6
20260906174149 92 234 0.0 3.0 0.00 0.00 0.00 56 1015.8
20260906173632 92 302 2.0 3.0 0.00 0.00 0.00 58 1015.8
20260906173139 92 294 1.0 3.0 0.00 0.00 0.00 59 1015.8
20260906172624 92 267 1.0 3.0 0.00 0.00 0.00 58 1016.0
20260906172131 91 277 1.0 3.0 0.00 0.00 0.00 60 1016.0
20260906171640 91 198 1.0 3.0 0.00 0.00 0.00 61 1016.1
20260906171126 92 186 1.0 3.0 0.00 0.00 0.00 59 1016.1
20260906170621 91 275 1.0 4.0 0.00 0.00 0.00 61 1016.3
20260906170139 91 265 1.0 4.0 0.00 0.00 0.00 60 1016.2
20260906165624 90 215 1.0 3.0 0.00 0.00 0.00 64 1016.2
20260906165136 90 173 1.0 3.0 0.00 0.00 0.00 65 1016.3
20260906164622 90 107 1.0 2.0 0.00 0.00 0.00 64 1016.3
20260906164128 89 297 1.0 2.0 0.00 0.00 0.00 63 1016.2
20260906163636 89 298 1.0 2.0 0.00 0.00 0.00 66 1016.3
20260906163122 89 317 1.0 2.0 0.00 0.00 0.00 68 1016.3
20260906162648 90 317 1.0 2.0 0.00 0.00 0.00 69 1016.2
20260906162134 89 317 1.0 2.0 0.00 0.00 0.00 69 1016.2
20260906161621 88 250 1.0 2.0 0.00 0.00 0.00 67 1016.0
20260906161128 87 140 1.0 2.0 0.00 0.00 0.00 70 1016.1
20260906160642 87 42 1.0 2.0 0.00 0.00 0.00 71 1016.2
20260906160140 86 42 1.0 2.0 0.00 0.00 0.00 73 1016.1
20260906155624 86 42 0.0 2.0 0.00 0.00 0.00 73 1016.0
20260906155137 86 42 0.0 2.0 0.00 0.00 0.00 72 1016.0
20260906154623 86 42 1.0 2.0 0.00 0.00 0.00 72 1015.9
20260906154128 86 42 1.0 2.0 0.00 0.00 0.00 73 1015.9
20260906153656 86 18 1.0 2.0 0.00 0.00 0.00 72 1015.8
20260906153140 86 5 0.0 2.0 0.00 0.00 0.00 72 1015.8
20260906152624 86 57 1.0 2.0 0.00 0.00 0.00 71 1015.8
20260906152128 85 62 1.0 2.0 0.00 0.00 0.00 71 1015.8
20260906151634 85 21 0.0 2.0 0.00 0.00 0.00 72 1015.9
20260906151119 85 21 1.0 2.0 0.00 0.00 0.00 73 1015.8
20260906150638 85 58 0.0 2.0 0.00 0.00 0.00 73 1015.8
20260906150133 84 89 0.0 2.0 0.00 0.00 0.00 70 1015.8
20260906145624 85 123 1.0 2.0 0.00 0.00 0.00 70 1015.8
20260906145126 85 95 0.0 2.0 0.00 0.00 0.00 70 1015.8
20260906144654 85 95 0.0 2.0 0.00 0.00 0.00 71 1015.8
20260906144139 85 95 0.0 3.0 0.00 0.00 0.00 70 1015.8
20260906143622 84 134 1.0 3.0 0.00 0.00 0.00 74 1015.8
20260906143131 84 83 0.0 2.0 0.00 0.00 0.00 73 1015.8
20260906142637 84 51 0.0 2.0 0.00 0.00 0.00 74 1015.8
20260906142124 83 51 1.0 2.0 0.00 0.00 0.00 75 1015.6
20260906141648 83 36 1.0 2.0 0.00 0.00 0.00 77 1015.7
20260906141134 82 36 1.0 2.0 0.00 0.00 0.00 78 1015.7
20260906140631 83 36 1.0 2.0 0.00 0.00 0.00 78 1015.7
20260906140126 82 36 0.0 2.0 0.00 0.00 0.00 78 1015.7
20260906135634 82 36 0.0 2.0 0.00 0.00 0.00 79 1015.7
20260906135142 81 36 0.0 2.0 0.00 0.00 0.00 81 1015.6
20260906134629 80 36 0.0 2.0 0.00 0.00 0.00 82 1015.7
20260906134156 80 36 1.0 2.0 0.00 0.00 0.00 83 1015.6
20260906133642 79 36 1.0 2.0 0.00 0.00 0.00 83 1015.5
20260906133127 78 36 1.0 2.0 0.00 0.00 0.00 85 1015.4
20260906132636 78 36 1.0 2.0 0.00 0.00 0.00 85 1015.4
20260906132121 77 41 1.0 2.0 0.00 0.00 0.00 86 1015.5
20260906131627 76 44 1.0 2.0 0.00 0.00 0.00 88 1015.4
20260906131133 76 50 1.0 2.0 0.00 0.00 0.00 89 1015.4
20260906130628 75 281 0.0 0.0 0.00 0.00 0.00 89 1015.4
20260906130122 75 281 0.0 1.0 0.00 0.00 0.00 89 1015.2
20260906125631 75 281 0.0 1.0 0.00 0.00 0.00 89 1015.2
20260906125137 74 281 0.0 0.0 0.00 0.00 0.00 89 1015.1
20260906124622 74 281 0.0 2.0 0.00 0.00 0.00 89 1015.1
20260906124134 74 281 0.0 2.0 0.00 0.00 0.00 90 1015.1
20260906123635 74 281 1.0 2.0 0.00 0.00 0.00 90 1015.0
20260906123140 74 281 0.0 2.0 0.00 0.00 0.00 90 1014.9
20260906122625 73 321 0.0 1.0 0.00 0.00 0.00 90 1014.8
20260906122131 73 321 0.0 0.0 0.00 0.00 0.00 90 1014.8
20260906121637 73 321 0.0 0.0 0.00 0.00 0.00 90 1014.7
20260906121124 73 321 0.0 0.0 0.00 0.00 0.00 90 1014.6
20260906120620 73 321 0.0 0.0 0.00 0.00 0.00 90 1014.6
20260906120138 73 321 0.0 1.0 0.00 0.00 0.00 90 1014.5
20260906115624 73 321 0.0 2.0 0.00 0.00 0.00 90 1014.5
20260906115129 73 321 1.0 2.0 0.00 0.00 0.00 89 1014.4
20260906114654 73 56 0.0 1.0 0.00 0.00 0.00 89 1014.2
20260906114124 73 56 0.0 1.0 0.00 0.00 0.00 90 1014.2
20260906113649 73 56 0.0 2.0 0.00 0.00 0.00 90 1014.3
20260906113137 73 56 0.0 2.0 0.00 0.00 0.00 90 1014.2
20260906112644 73 56 1.0 2.0 0.00 0.00 0.00 89 1014.2
20260906112128 73 56 0.0 1.0 0.00 0.00 0.00 89 1014.2
20260906111636 73 56 0.0 0.0 0.00 0.00 0.00 89 1014.1
20260906111122 73 56 0.0 0.0 0.00 0.00 0.00 89 1014.1
20260906110659 73 56 0.0 0.0 0.00 0.00 0.00 90 1014.2
20260906110135 73 56 0.0 0.0 0.00 0.00 0.00 89 1014.1
20260906105701 73 56 0.0 0.0 0.00 0.00 0.00 89 1014.1
20260906105126 73 55 0.0 0.0 0.00 0.00 0.00 89 1014.1
20260906104653 74 55 0.0 0.0 0.00 0.00 0.00 89 1014.1
20260906104140 73 56 0.0 0.0 0.00 0.00 0.00 89 1014.0
20260906103646 73 56 0.0 0.0 0.00 0.00 0.00 89 1014.1
20260906103152 74 56 0.0 0.0 0.00 0.00 0.00 89 1014.0
20260906102637 74 56 0.0 0.0 0.00 0.00 0.00 88 1014.0
20260906102128 74 56 0.0 0.0 0.00 0.00 0.00 89 1014.0
20260906101637 74 55 0.0 1.0 0.00 0.00 0.00 89 1014.0
20260906101122 74 56 0.0 1.0 0.00 0.00 0.00 89 1013.8
20260906100659 74 56 0.0 0.0 0.00 0.00 0.00 89 1013.8
20260906100136 74 55 0.0 0.0 0.00 0.00 0.00 88 1013.9
20260906095622 74 56 0.0 0.0 0.00 0.00 0.00 88 1013.8
20260906095128 74 56 0.0 0.0 0.00 0.00 0.00 88 1013.9
20260906094636 74 56 0.0 0.0 0.00 0.00 0.00 88 1013.9
20260906094143 74 56 0.0 1.0 0.00 0.00 0.00 88 1013.8
20260906093648 75 55 0.0 1.0 0.00 0.00 0.00 87 1014.0
20260906093154 74 56 0.0 0.0 0.00 0.00 0.00 88 1014.1
20260906092640 74 56 0.0 0.0 0.00 0.00 0.00 87 1014.1
20260906092124 74 56 0.0 1.0 0.00 0.00 0.00 87 1014.1
20260906091631 75 56 1.0 1.0 0.00 0.00 0.00 87 1014.0
20260906091136 75 56 0.0 1.0 0.00 0.00 0.00 86 1014.1
20260906090636 75 56 0.0 0.0 0.00 0.00 0.00 86 1014.0
20260906090132 75 56 0.0 0.0 0.00 0.00 0.00 86 1014.0
20260906085639 75 55 0.0 0.0 0.00 0.00 0.00 86 1014.0
20260906085125 75 56 0.0 0.0 0.00 0.00 0.00 85 1013.9
20260906084654 75 56 0.0 0.0 0.00 0.00 0.00 86 1013.9
20260906084140 75 56 0.0 0.0 0.00 0.00 0.00 86 1013.9
20260906083625 76 56 0.0 1.0 0.00 0.00 0.00 85 1013.9
20260906083134 76 56 0.0 1.0 0.00 0.00 0.00 85 1013.9
20260906082659 76 56 0.0 0.0 0.00 0.00 0.00 85 1013.9
20260906082122 76 56 0.0 0.0 0.00 0.00 0.00 85 1013.9
20260906081652 76 56 0.0 0.0 0.00 0.00 0.00 84 1013.8
20260906081138 76 56 0.0 1.0 0.00 0.00 0.00 83 1013.8
20260906080637 76 56 0.0 1.0 0.00 0.00 0.00 83 1013.6
20260906080136 76 56 0.0 1.0 0.00 0.00 0.00 83 1013.6
20260906075622 77 56 0.0 2.0 0.00 0.00 0.00 83 1013.7
20260906075128 77 56 1.0 2.0 0.00 0.00 0.00 82 1013.5
20260906074634 77 157 0.0 0.0 0.00 0.00 0.00 81 1013.7
20260906074141 77 157 0.0 1.0 0.00 0.00 0.00 81 1013.7
20260906073626 77 157 0.0 1.0 0.00 0.00 0.00 83 1013.5
20260906073134 77 157 0.0 5.0 0.00 0.00 0.00 83 1013.7
20260906072701 77 157 0.0 5.0 0.00 0.00 0.00 81 1013.5
20260906072126 77 28 0.0 2.0 0.00 0.00 0.00 81 1013.6
20260906071635 77 329 0.0 2.0 0.00 0.00 0.00 81 1013.8
20260906071124 77 36 0.0 1.0 0.00 0.00 0.00 81 1013.8
20260906070641 77 36 0.0 1.0 0.00 0.00 0.00 82 1013.8
20260906070138 77 36 0.0 0.0 0.00 0.00 0.00 82 1013.8
20260906065644 77 36 0.0 0.0 0.00 0.00 0.00 82 1013.8
20260906065130 77 36 0.0 0.0 0.00 0.00 0.00 82 1013.7
20260906064637 77 36 0.0 0.0 0.00 0.00 0.00 82 1013.7
20260906064140 77 36 0.0 0.0 0.00 0.00 0.00 82 1013.8
20260906063624 77 36 0.0 0.0 0.00 0.00 0.00 81 1013.9
20260906063132 77 36 0.0 0.0 0.00 0.00 0.00 82 1013.9
20260906062639 77 36 0.0 0.0 0.00 0.00 0.00 82 1014.0
20260906062123 78 36 0.0 2.0 0.00 0.00 0.00 80 1014.1
20260906061631 78 36 0.0 2.0 0.00 0.00 0.00 79 1014.1
20260906061139 78 48 1.0 2.0 0.00 0.00 0.00 79 1014.0
20260906060636 78 57 1.0 2.0 0.00 0.00 0.00 78 1014.0
20260906060136 79 57 0.0 2.0 0.00 0.00 0.00 78 1014.0
20260906055623 79 37 0.0 1.0 0.00 0.00 0.00 77 1014.0
20260906055128 79 37 0.0 2.0 0.00 0.00 0.00 76 1014.0
20260906054636 80 37 0.0 2.0 0.00 0.00 0.00 75 1014.0
20260906054123 81 52 1.0 4.0 0.00 0.00 0.00 74 1014.0
20260906053627 81 61 2.0 4.0 0.00 0.00 0.00 73 1014.0
20260906053136 81 86 2.0 3.0 0.00 0.00 0.00 73 1014.0
20260906052621 81 44 1.0 4.0 0.00 0.00 0.00 73 1014.0
20260906052130 81 55 1.0 4.0 0.00 0.00 0.00 73 1014.0
20260906051657 81 65 1.0 5.0 0.00 0.00 0.00 73 1014.1
20260906051144 80 68 2.0 5.0 0.00 0.00 0.00 75 1014.1
20260906050620 80 66 0.0 0.0 0.00 0.00 0.00 76 1014.1
20260906050138 80 53 0.0 0.0 0.00 0.00 0.00 77 1014.1
20260906045644 80 36 0.0 0.0 0.00 0.00 0.00 78 1014.1
20260906045148 80 36 0.0 0.0 0.00 0.00 0.00 79 1014.0
20260906044635 79 65 0.0 0.0 0.00 0.00 0.00 80 1014.1
20260906044201 79 58 0.0 0.0 0.00 0.00 0.00 81 1014.0
20260906043625 79 58 0.0 0.0 0.00 0.00 0.00 82 1014.0
20260906043134 79 51 0.0 0.0 0.00 0.00 0.00 82 1014.0
20260906042640 79 17 0.0 0.0 0.00 0.00 0.00 82 1013.9
20260906042126 79 339 0.0 0.0 0.00 0.00 0.00 82 1014.0
20260906041630 80 339 0.0 0.0 0.00 0.00 0.00 82 1013.9
20260906041138 80 339 0.0 0.0 0.00 0.00 0.00 81 1013.9
20260906040632 80 339 0.0 0.0 0.00 0.00 0.00 81 1013.8
20260906040127 80 339 0.0 0.0 0.00 0.00 0.00 81 1013.9
20260906035640 80 339 0.0 0.0 0.00 0.00 0.00 81 1013.8
20260906035126 80 339 0.0 0.0 0.00 0.00 0.00 81 1013.8
20260906034630 80 339 0.0 0.0 0.00 0.00 0.00 80 1013.8
20260906034139 80 339 0.0 0.0 0.00 0.00 0.00 80 1013.7
20260906033624 80 339 0.0 0.0 0.00 0.00 0.00 79 1013.7
20260906033132 81 339 0.0 0.0 0.00 0.00 0.00 79 1013.5
20260906032638 81 339 0.0 0.0 0.00 0.00 0.00 78 1013.5
20260906032123 81 32 0.0 0.0 0.00 0.00 0.00 78 1013.7
20260906031631 81 32 0.0 0.0 0.00 0.00 0.00 77 1013.6
20260906031120 81 31 0.0 0.0 0.00 0.00 0.00 77 1013.5
20260906030639 82 31 0.0 0.0 0.00 0.00 0.00 75 1013.5
20260906030157 82 32 0.0 0.0 0.00 0.00 0.00 74 1013.3
20260906025623 82 32 0.0 0.0 0.00 0.00 0.00 73 1013.3
20260906025129 82 32 0.0 0.0 0.00 0.00 0.00 72 1013.2
20260906024637 83 32 0.0 0.0 0.00 0.00 0.00 71 1013.2
20260906024123 83 32 0.0 0.0 0.00 0.00 0.00 70 1013.2
20260906023628 83 31 0.0 0.0 0.00 0.00 0.00 69 1013.1
20260906023136 83 31 0.0 0.0 0.00 0.00 0.00 70 1012.9
20260906022642 83 31 0.0 0.0 0.00 0.00 0.00 69 1012.7
20260906022126 83 31 0.0 0.0 0.00 0.00 0.00 69 1012.7
20260906021634 83 31 0.0 0.0 0.00 0.00 0.00 69 1012.6
20260906021123 83 32 0.0 0.0 0.00 0.00 0.00 70 1012.5
20260906020640 83 31 0.0 0.0 0.00 0.00 0.00 71 1012.3
20260906020136 83 31 0.0 0.0 0.00 0.00 0.00 71 1012.2
20260906015641 84 31 0.0 0.0 0.00 0.00 0.00 70 1012.0
20260906015126 84 31 0.0 0.0 0.00 0.00 0.00 71 1011.9
20260906014634 84 31 0.0 0.0 0.00 0.00 0.00 71 1011.9
20260906014140 84 32 0.0 0.0 0.00 0.00 0.00 71 1011.9
20260906013625 85 32 0.0 0.0 0.00 0.00 0.00 72 1012.0
20260906013133 85 31 0.0 0.0 0.00 0.00 0.00 71 1012.0
20260906012640 85 31 0.0 0.0 0.00 0.00 0.00 71 1011.9
20260906012124 85 32 0.0 1.0 0.00 0.00 0.00 72 1012.0
20260906011634 85 32 0.0 1.0 0.00 0.00 0.00 71 1011.8
20260906011139 85 32 0.0 0.0 0.00 0.00 0.00 71 1011.9
20260906010634 85 32 0.0 0.0 0.00 0.00 0.00 71 1011.8
20260906010127 86 31 0.0 0.0 0.00 0.00 0.00 71 1011.9
20260906005654 86 31 0.0 0.0 0.00 0.00 0.00 71 1011.9
20260906005141 86 31 0.0 1.0 0.00 0.00 0.00 69 1011.9
20260906004625 87 32 0.0 1.0 0.00 0.00 0.00 70 1011.7
20260906004133 87 32 0.0 1.0 0.00 0.00 0.00 69 1011.8
20260906003621 87 32 0.0 1.0 0.00 0.00 0.00 69 1011.8
20260906003127 87 32 0.0 2.0 0.00 0.00 0.00 69 1011.8
20260906002635 88 31 0.0 2.0 0.00 0.00 0.00 70 1011.8
20260906002125 88 46 0.0 1.0 0.00 0.00 0.00 70 1011.7
20260906001629 88 46 0.0 1.0 0.00 0.00 0.00 68 1011.7
20260906001137 88 46 0.0 1.0 0.00 0.00 0.00 67 1011.7
20260906000653 89 46 0.0 3.0 0.00 0.00 0.00 67 1011.7
20260906000125 89 46 1.0 3.0 0.00 0.00 0.00 66 1011.8
20260905235633 90 46 0.0 2.0 0.00 0.00 0.00 64 1011.7
20260905235140 90 46 0.0 2.0 0.00 0.00 0.00 64 1011.8
20260905234624 90 46 1.0 2.0 0.00 0.00 0.00 63 1011.8
20260905234131 90 32 0.0 2.0 0.00 0.00 0.00 64 1011.9
20260905233659 90 32 0.0 1.0 0.00 0.00 0.00 63 1011.9
20260905233124 90 32 0.0 1.0 0.00 0.00 0.00 63 1012.0
20260905232628 91 32 0.0 1.0 0.00 0.00 0.00 62 1011.9
20260905232134 91 32 0.0 2.0 0.00 0.00 0.00 62 1012.0
20260905231623 91 34 0.0 2.0 0.00 0.00 0.00 61 1012.0
20260905231131 92 59 0.0 2.0 0.00 0.00 0.00 60 1011.9
20260905230626 92 76 1.0 2.0 0.00 0.00 0.00 59 1011.8
20260905230123 92 94 0.0 2.0 0.00 0.00 0.00 57 1011.8
20260905225649 92 38 0.0 3.0 0.00 0.00 0.00 58 1011.9
20260905225156 93 136 1.0 3.0 0.00 0.00 0.00 58 1011.9
20260905224622 93 156 0.0 3.0 0.00 0.00 0.00 58 1012.0
20260905224128 93 46 1.0 2.0 0.00 0.00 0.00 59 1012.1
20260905223634 93 360 1.0 2.0 0.00 0.00 0.00 57 1012.0
20260905223142 93 86 1.0 3.0 0.00 0.00 0.00 56 1012.0
20260905222626 94 26 1.0 3.0 0.00 0.00 0.00 56 1012.0
20260905222131 94 18 1.0 3.0 0.00 0.00 0.00 55 1012.1
20260905221622 94 18 1.0 2.0 0.00 0.00 0.00 54 1012.1
20260905221149 95 141 0.0 2.0 0.00 0.00 0.00 53 1012.0
20260905220623 95 68 1.0 3.0 0.00 0.00 0.00 53 1012.3
20260905220139 95 85 1.0 3.0 0.00 0.00 0.00 51 1012.1
20260905215624 95 113 1.0 2.0 0.00 0.00 0.00 51 1012.2
20260905215153 95 63 1.0 3.0 0.00 0.00 0.00 51 1012.2
20260905214639 95 127 1.0 3.0 0.00 0.00 0.00 51 1012.1
20260905214125 96 111 1.0 4.0 0.00 0.00 0.00 48 1012.2
20260905213631 96 119 1.0 4.0 0.00 0.00 0.00 49 1012.2
20260905213138 96 67 2.0 4.0 0.00 0.00 0.00 47 1012.2
20260905212624 96 338 1.0 7.0 0.00 0.00 0.00 48 1012.3
20260905212127 97 248 2.0 7.0 0.00 0.00 0.00 48 1012.2
20260905211634 98 233 2.0 6.0 0.00 0.00 0.00 47 1012.2
20260905211124 98 122 1.0 6.0 0.00 0.00 0.00 46 1012.2
20260905210619 99 98 3.0 5.0 0.00 0.00 0.00 46 1012.4
20260905210157 98 93 3.0 8.0 0.00 0.00 0.00 48 1012.5
20260905205641 98 84 3.0 8.0 0.00 0.00 0.00 47 1012.5
20260905205125 99 144 2.0 7.0 0.00 0.00 0.00 46 1012.7
20260905204633 99 46 2.0 8.0 0.00 0.00 0.00 47 1012.7
20260905204140 98 136 2.0 8.0 0.00 0.00 0.00 46 1012.8
20260905203625 99 81 3.0 10.0 0.00 0.00 0.00 45 1012.8
20260905203152 99 44 3.0 10.0 0.00 0.00 0.00 45 1012.9
20260905202637 99 33 3.0 9.0 0.00 0.00 0.00 45 1012.9
20260905202123 99 119 4.0 9.0 0.00 0.00 0.00 45 1013.0
20260905201631 99 238 2.0 9.0 0.00 0.00 0.00 45 1013.0
20260905201121 99 119 2.0 10.0 0.00 0.00 0.00 45 1013.2
20260905200640 98 184 2.0 10.0 0.00 0.00 0.00 47 1013.2
20260905200137 98 161 3.0 8.0 0.00 0.00 0.00 49 1013.2
20260905195624 99 148 3.0 7.0 0.00 0.00 0.00 46 1013.1
20260905195128 99 49 2.0 7.0 0.00 0.00 0.00 48 1013.1
20260905194634 98 55 1.0 4.0 0.00 0.00 0.00 50 1013.2
20260905194121 97 72 1.0 4.0 0.00 0.00 0.00 49 1013.3
20260905193625 98 192 1.0 7.0 0.00 0.00 0.00 48 1013.3
20260905193134 98 229 2.0 7.0 0.00 0.00 0.00 48 1013.5
20260905192620 99 225 2.0 9.0 0.00 0.00 0.00 46 1013.4
20260905192126 99 74 4.0 9.0 0.00 0.00 0.00 47 1013.4
20260905191638 98 128 2.0 6.0 0.00 0.00 0.00 48 1013.4
20260905191126 98 120 3.0 8.0 0.00 0.00 0.00 49 1013.5
20260905190621 99 5 2.0 8.0 0.00 0.00 0.00 47 1013.5
20260905190137 98 360 2.0 12.0 0.00 0.00 0.00 49 1013.7
20260905185622 98 221 1.0 12.0 0.00 0.00 0.00 48 1013.8
20260905185151 98 213 4.0 11.0 0.00 0.00 0.00 47 1013.9
20260905184631 98 54 2.0 11.0 0.00 0.00 0.00 48 1013.8
20260905184127 98 133 2.0 7.0 0.00 0.00 0.00 48 1013.9
20260905183628 98 157 2.0 5.0 0.00 0.00 0.00 49 1014.0
20260905183136 97 161 1.0 6.0 0.00 0.00 0.00 50 1014.2